Location: Helstorf
(52.5868°N, 9.5862°E)
Time: 08:13:12
(UTC+00:00)

Meteor 2-4 Rocket - Pass Details

Date: 15 May 2026
Orbit: 798 x 906 km, 81.2° (Epoch: 5 June)

Event Time Altitude Azimuth Distance (km) Brightness Sun altitude
Exits shadow 23:00:17 28° 146° (SSE) 1,487 4.5 -18.3°
Maximum altitude 23:02:39 45° 93° (E) 1,118 4.2 -18.3°
Drops below altitude 10° 23:07:55 10° 23° (NNE) 2,466 7.1 -18.3°
Sets 23:10:27 0° 17° (NNE) 3,423 8.2 -18.3°
